Danville, VA

2:50 PM EDT on June 23, 2017 (GMT -0400)
Danville Regional

Weather History for KDAN - January, 2011

Change the Weather History Date:

Wednesday, January 12, 2011

  Actual Average Record
Temperature  
Mean Temperature 30 °F 37 °F  
Max Temperature 36 °F 46 °F 70 °F (1975)
Min Temperature 24 °F 29 °F 5 °F (1981)
Degree Days  
Heating Degree Days 35 28  
Month to date heating degree days 372 331  
Since 1 July heating degree days 2006 1813  
Cooling Degree Days 0 0  
Month to date cooling degree days 0 0  
Year to date cooling degree days 0 0  
Moisture  
Dew Point 16 °F    
Average Humidity 72    
Maximum Humidity 85    
Minimum Humidity 58    
Precipitation  
Precipitation 0.00 in 0.11 in 1.07 in (1991)
Month to date precipitation 0.62 1.32  
Year to date precipitation 0.62 1.32  
Snow  
Snow 0.00 in - - ()
Month to date snowfall 3.3  
Since 1 July snowfall 10.7  
Snow Depth 1.00 in    
Sea Level Pressure  
Sea Level Pressure 30.07 in    
Wind  
Wind Speed 12 mph (West)    
Max Wind Speed 22 mph    
Max Gust Speed 31 mph    
Visibility 10 miles    
Events      
T = Trace of Precipitation, MM = Missing Value Source: NWS Daily Summary

Daily Weather History Graph

Daily Weather History Graph

Search for Another Location

Airport or City:

Trip Planner

Search our weather history database for the weather conditions in past years. The results will help you decide how hot, cold, wet, or windy it might be!

Date:

Astronomy

Jan. 12, 2011 Rise Set
Actual Time 7:29 AM EST 5:22 PM EST
Civil Twilight 7:01 AM EST 5:50 PM EST
Nautical Twilight 6:29 AM EST 6:22 PM EST
Astronomical Twilight 5:58 AM EST 6:53 PM EST
Moon 11:31 AM EST (1/12) 12:29 AM EST (1/12)
Length of Visible Light 10h 49m
Length of Day
9h 52m
First Quarter, 52% of the Moon is Illuminated
Jan 12
First Quarter
Jan 19
Full
Jan 26
Last Quarter
Feb 2
New
Feb 11
First Quarter

Hourly Weather History & Observations

Time (EST) Temp. Windchill Dew Point Humidity Pressure Visibility Wind Dir Wind Speed Gust Speed Precip Events Conditions
12:53 AM 30.0 °F 24.1 °F 27.0 °F 88% 29.96 in 8.0 mi West 5.8 mph - N/A   Overcast
1:15 AM 30.2 °F 22.6 °F 26.6 °F 86% 29.96 in 9.0 mi West 8.1 mph - N/A   Overcast
1:53 AM 28.0 °F 20.0 °F 25.0 °F 88% 29.96 in 9.0 mi WSW 8.1 mph - N/A   Clear
2:53 AM 28.9 °F 18.6 °F 21.9 °F 75% 29.98 in 10.0 mi WSW 12.7 mph - N/A   Clear
4:53 AM 28.0 °F 17.5 °F 18.0 °F 66% 29.99 in 10.0 mi West 12.7 mph - N/A   Clear
5:53 AM 28.0 °F 18.6 °F 16.0 °F 61% 29.99 in 10.0 mi West 10.4 mph - N/A   Clear
6:53 AM 26.1 °F 17.6 °F 15.1 °F 63% 30.02 in 10.0 mi West 8.1 mph - N/A   Clear
7:53 AM 26.1 °F 15.6 °F 14.0 °F 60% 30.02 in 10.0 mi West 11.5 mph - N/A   Clear
8:53 AM 27.0 °F 18.7 °F 16.0 °F 63% 30.05 in 10.0 mi SW 8.1 mph - N/A   Clear
9:53 AM 30.0 °F 19.1 °F 16.0 °F 56% 30.06 in 10.0 mi West 15.0 mph 21.9 mph N/A   Clear
10:53 AM 32.0 °F 23.6 °F 14.0 °F 48% 30.07 in 10.0 mi WNW 10.4 mph 18.4 mph N/A   Clear
11:53 AM 34.0 °F 24.6 °F 14.0 °F 44% 30.05 in 10.0 mi WNW 13.8 mph 26.5 mph N/A   Clear
12:53 PM 34.0 °F 23.0 °F 12.9 °F 42% 30.04 in 10.0 mi West 18.4 mph 26.5 mph N/A   Partly Cloudy
1:53 PM 35.1 °F 24.8 °F 14.0 °F 42% 30.04 in 10.0 mi WNW 17.3 mph 25.3 mph N/A   Scattered Clouds
2:53 PM 35.1 °F 24.5 °F 14.0 °F 42% 30.06 in 10.0 mi NW 18.4 mph 25.3 mph N/A   Scattered Clouds
3:53 PM 35.1 °F 26.9 °F 14.0 °F 42% 30.08 in 10.0 mi NW 11.5 mph 19.6 mph N/A   Mostly Cloudy
4:53 PM 34.0 °F 23.4 °F 14.0 °F 44% 30.10 in 10.0 mi West 17.3 mph 23.0 mph N/A   Mostly Cloudy
5:53 PM 30.9 °F 23.5 °F 12.9 °F 47% 30.13 in 10.0 mi West 8.1 mph 18.4 mph N/A   Overcast
6:53 PM 30.9 °F 20.7 °F 12.9 °F 47% 30.15 in 10.0 mi West 13.8 mph 23.0 mph N/A   Partly Cloudy
7:53 PM 28.9 °F 19.2 °F 12.9 °F 51% 30.17 in 10.0 mi West 11.5 mph 17.3 mph N/A   Clear
8:53 PM 28.9 °F 19.8 °F 12.0 °F 49% 30.18 in 10.0 mi WNW 10.4 mph 21.9 mph N/A   Clear
9:53 PM 28.0 °F 20.0 °F 12.0 °F 51% 30.19 in 10.0 mi WNW 8.1 mph - N/A   Clear
10:53 PM 28.0 °F 18.6 °F 12.9 °F 53% 30.19 in 10.0 mi West 10.4 mph 21.9 mph N/A   Clear
11:53 PM 27.0 °F 18.7 °F 12.9 °F 56% 30.21 in 10.0 mi West 8.1 mph 17.3 mph N/A   Clear